Home   Weather   Cologne   Past weeks

Flag for Germany Past Weather in Cologne, North Rhine-Westphalia, Germany — Yesterday and Last 2 Weeks

48 °F

Partly sunny.

Feels Like: 46 °F
Forecast: 41 / 58 °F
Wind: 5 mph from Southwest

Location: Koeln / Bonn

Current Time: Oct 26, 2016 at 11:31:58 AM

Latest Report: Oct 26, 2016 at 10:50 AM

Visibility: 4 mi

Pressure: 30.39 "Hg

Humidity: 87%

Dew Point: 45 °F

Location of CologneLocation

Past Weather in Cologne — Graph


Cologne Temperature Yesterday

Maximum temperature yesterday: 52 °F (at 12:20 AM)
Minimum temperature yesterday: 48 °F (at 6:50 PM)
Average temperature yesterday: 50 °F

High & Low Weather Summary for the Past Weeks

High68 °F (Oct 16, 3:50 PM)100% (Oct 11, 10:20 AM)30.36 "Hg (Oct 11, 10:20 AM)
Low36 °F (Oct 23, 2:20 AM)49% (Oct 16, 3:20 PM)29.68 "Hg (Oct 14, 6:20 PM)
Average49 °F87%30.01 "Hg
* Reported Oct 11 10:20 AM — Oct 26 10:20 AM, Cologne, Weather by CustomWeather, © 2016

Note: Actual official high and low records may vary slightly from our data, if they occured in-between our weather recording intervals... More about our weather records


Cologne Weather History for the Previous 24 Hours

Scroll right to see more
Time TempWeatherWind HumidityBarometerVisibility
10:20 AM
Wed, Oct 26
48 °FFog.5 mph87%30.36 "Hg3 mi
9:50 AM48 °FFog.3 mph100%30.36 "Hg2 mi
9:20 AM48 °FFog.3 mph94%30.36 "Hg2 mi
8:50 AM46 °FFog.No wind100%30.36 "Hg2 mi
8:20 AM46 °FFog.1 mph100%30.36 "Hg2 mi
7:50 AM46 °FFog.1 mph100%30.33 "Hg3 mi
7:20 AM46 °FLow clouds.2 mph100%30.33 "Hg4 mi
6:50 AM48 °FLow clouds.2 mph94%30.33 "Hg4 mi
6:20 AM48 °FLow clouds.2 mph94%30.33 "Hg4 mi
5:50 AM48 °FLow clouds.1 mph94%30.33 "Hg4 mi
5:20 AM48 °FLow clouds.2 mph94%30.33 "Hg4 mi
4:50 AM48 °FLow clouds.3 mph94%30.33 "Hg4 mi
4:20 AM48 °FLow clouds.5 mph94%30.33 "Hg4 mi
3:50 AM48 °FLow clouds.3 mph94%30.33 "Hg4 mi
3:20 AM48 °FLow clouds.2 mph94%30.33 "Hg4 mi
2:50 AM48 °FLow clouds.2 mph94%30.33 "Hg4 mi
2:20 AM48 °FOvercast.2 mph94%30.33 "Hg4 mi
1:50 AM48 °FOvercast.1 mph94%30.33 "Hg4 mi
1:20 AM48 °FPassing clouds.2 mph94%30.33 "Hg4 mi
12:50 AM48 °FOvercast.No wind94%30.33 "Hg4 mi
12:20 AM48 °FPassing clouds.No wind94%30.33 "Hg4 mi
11:50 PM
Tue, Oct 25
48 °FPassing clouds.5 mph94%30.30 "Hg4 mi
11:20 PM48 °FOvercast.3 mph94%30.33 "Hg4 mi
10:50 PM48 °FLow clouds.1 mph94%30.33 "Hg4 mi
10:20 PM48 °FLow clouds.3 mph100%30.30 "Hg4 mi
9:50 PM48 °FLow clouds.2 mph100%30.30 "Hg4 mi
9:20 PM48 °FLow clouds.2 mph100%30.30 "Hg4 mi
8:50 PM48 °FPassing clouds.1 mph100%30.30 "Hg4 mi
8:20 PM48 °FPassing clouds.3 mph100%30.30 "Hg4 mi
7:50 PM48 °FFog.8 mph100%30.27 "Hg3 mi
7:20 PM48 °FFog.1 mph100%30.27 "Hg3 mi
6:50 PM48 °FFog.2 mph100%30.27 "Hg3 mi
6:20 PM50 °FFog.3 mph94%30.27 "Hg3 mi
5:50 PM50 °FFog.3 mph94%30.27 "Hg3 mi
5:20 PM50 °FMostly cloudy.5 mph94%30.24 "Hg4 mi
4:50 PM50 °FMostly cloudy.5 mph94%30.24 "Hg4 mi
4:20 PM50 °FDrizzle. Partly sunny.6 mph94%30.24 "Hg4 mi
3:50 PM50 °FPartly sunny.6 mph94%30.24 "Hg4 mi
3:20 PM50 °FMostly cloudy.5 mph94%30.21 "Hg4 mi
2:50 PM50 °FMostly cloudy.3 mph94%30.21 "Hg4 mi
2:20 PM50 °FFog.5 mph94%30.21 "Hg3 mi
1:50 PM50 °FFog.6 mph94%30.21 "Hg3 mi
1:20 PM50 °FFog.6 mph94%30.21 "Hg2 mi
12:50 PM50 °FDrizzle. Fog.7 mph94%30.21 "Hg2 mi
12:20 PM50 °FDrizzle. Fog.7 mph94%30.21 "Hg2 mi
11:50 AM50 °FMostly cloudy.8 mph94%30.18 "Hg4 mi
11:20 AM50 °FMostly cloudy.6 mph94%30.18 "Hg4 mi
Weather by CustomWeather, © 2016

See weather overviewHow to use our weather pages